CW6037 Weather Reports


time (UTC)temp
F
wind
direction
speed
knots
gust
knots
rain 1hr
in
rain 24hr
in
rain mn
in
humidity
%
barometer
mb
20190121183442 8 304 5.2 19.1 0.00 0.00 0.00 72 1019.3
20190121182940 8 281 6.1 19.1 0.00 0.00 0.00 72 1019.3
20190121182437 8 295 6.1 19.1 0.00 0.00 0.00 69 1019.3
20190121181937 7 42 7.0 15.6 0.00 0.00 0.00 72 1019.3
20190121181444 7 244 7.0 15.6 0.00 0.00 0.00 71 1019.2
20190121180929 7 228 7.8 20.9 0.00 0.00 0.00 71 1019.2
20190121180430 6 284 7.8 20.9 0.00 0.00 0.00 71 1019.2
20190121175928 6 309 6.1 15.6 0.00 0.00 0.00 71 1018.8
20190121175427 7 273 4.3 11.3 0.00 0.00 0.00 72 1018.8
20190121174927 7 238 6.1 13.9 0.00 0.00 0.00 76 1018.8
20190121174427 6 275 7.0 13.9 0.00 0.00 0.00 73 1018.5
20190121173927 6 247 7.0 15.6 0.00 0.00 0.00 74 1018.5
20190121173427 6 273 6.1 15.6 0.00 0.00 0.00 73 1018.5
20190121172925 6 288 7.0 14.8 0.00 0.00 0.00 73 1018.3
20190121172439 6 286 7.8 14.8 0.00 0.00 0.00 73 1018.3
20190121171922 6 250 7.0 14.8 0.00 0.00 0.00 74 1018.3
20190121171421 6 300 6.1 14.8 0.00 0.00 0.00 75 1018.3
20190121170920 6 285 6.1 16.5 0.00 0.00 0.00 74 1018.3
20190121170417 6 308 4.3 16.5 0.00 0.00 0.00 77 1018.3
20190121165908 6 318 3.5 10.4 0.00 0.00 0.00 77 1018.6
20190121165407 5 255 3.5 10.4 0.00 0.00 0.00 76 1018.6
20190121164909 5 261 2.6 7.8 0.00 0.00 0.00 76 1018.6
20190121164406 4 257 1.7 7.0 0.00 0.00 0.00 75 1018.8
20190121163906 4 155 3.5 13.0 0.00 0.00 0.00 75 1018.8
20190121163403 4 296 3.5 13.0 0.00 0.00 0.00 75 1018.8
20190121162859 4 257 4.3 15.6 0.00 0.00 0.00 76 1018.4
20190121162351 4 276 5.2 15.6 0.00 0.00 0.00 75 1018.4
20190121161854 4 300 4.3 12.2 0.00 0.00 0.00 76 1018.4
20190121161347 3 314 4.3 12.2 0.00 0.00 0.00 76 1018.3
20190121160842 3 355 4.3 12.2 0.00 0.00 0.00 75 1018.3
20190121160340 3 221 4.3 12.2 0.00 0.00 0.00 74 1018.3
20190121155828 3 277 4.3 13.9 0.00 0.00 0.00 74 1018.3
20190121155328 3 261 4.3 13.9 0.00 0.00 0.00 74 1018.3
20190121154830 3 275 4.3 14.8 0.00 0.00 0.00 75 1018.3
20190121154323 3 277 3.5 14.8 0.00 0.00 0.00 75 1018.3
20190121153832 3 226 1.7 7.0 0.00 0.00 0.00 77 1018.3
20190121153321 2 290 3.5 14.8 0.00 0.00 0.00 76 1018.3
20190121152816 2 355 4.3 14.8 0.00 0.00 0.00 75 1018.2
20190121152311 2 298 3.5 14.8 0.00 0.00 0.00 75 1018.2
20190121151811 2 219 3.5 14.8 0.00 0.00 0.00 76 1018.2
20190121151319 1 279 4.3 17.4 0.00 0.00 0.00 76 1017.8
20190121150811 1 0 4.3 17.4 0.00 0.00 0.00 76 1017.8
20190121150311 1 281 4.3 12.2 0.00 0.00 0.00 77 1017.8
20190121145801 0 307 6.1 17.4 0.00 0.01 0.00 76 1017.4
20190121145305 0 277 7.0 31.3 0.00 0.01 0.00 76 1017.4
20190121144751 0 294 6.1 31.3 0.00 0.01 0.00 76 1017.4
20190121144300 0 271 5.2 14.8 0.00 0.02 0.00 76 1017.1
20190121143752 -1 304 6.1 15.6 0.00 0.02 0.00 76 1017.1
20190121143249 -1 282 4.3 15.6 0.00 0.03 0.00 76 1017.1
20190121142753 -1 315 3.5 8.7 0.00 0.03 0.00 76 1016.7
20190121142243 -1 297 3.5 7.8 0.00 0.03 0.00 75 1016.7
20190121141750 -1 260 3.5 8.7 0.00 0.03 0.00 76 1016.7
20190121141238 -1 298 4.3 15.6 0.00 0.04 0.00 76 1016.6
20190121140728 -1 355 4.3 15.6 0.00 0.04 0.00 75 1016.6
20190121140227 -1 273 2.6 14.8 0.00 0.05 0.00 76 1016.6
20190121135725 -1 266 0.9 14.8 0.00 0.05 0.00 76 1016.2
20190121135224 -2 281 0.0 0.0 0.00 0.05 0.00 77 1016.2
20190121134725 -2 297 0.0 0.0 0.00 0.05 0.00 76 1016.2
20190121134213 -2 309 0.0 0.0 0.00 0.06 0.00 75 1016.1
20190121133705 -2 230 0.0 0.0 0.00 0.06 0.00 75 1016.1
20190121133203 -2 274 0.0 0.0 0.00 0.06 0.00 75 1016.1
20190121132655 -2 261 0.0 0.0 0.00 0.07 0.00 75 1015.6
20190121132159 -2 248 0.0 0.0 0.00 0.07 0.00 76 1015.6
20190121131708 -2 257 0.0 0.0 0.00 0.08 0.00 76 1015.6
20190121131155 -2 5 0.0 0.0 0.00 0.09 0.00 76 1015.2
20190121130652 -2 284 0.0 0.0 0.00 0.09 0.00 76 1015.2
20190121130139 -2 297 0.0 0.0 0.00 0.10 0.00 77 1015.2
20190121125638 -2 237 0.0 0.0 0.00 0.11 0.00 76 1015.2
20190121125138 -2 298 0.0 0.0 0.00 0.12 0.00 77 1015.2
20190121124631 -2 299 0.0 0.0 0.00 0.13 0.00 76 1015.2
20190121124134 -2 232 0.0 0.0 0.00 0.14 0.00 76 1015.1
20190121123625 -2 138 0.0 0.0 0.00 0.17 0.00 76 1015.1
20190121123125 -2 238 0.0 0.0 0.00 0.19 0.00 77 1015.1
20190121122626 -2 244 0.0 0.0 0.00 0.22 0.00 77 1014.7
20190121122133 -2 297 0.0 0.0 0.00 0.24 0.00 77 1014.7
20190121121619 -2 266 0.0 0.0 0.00 0.26 0.00 76 1014.7
20190121121133 -2 227 0.0 0.0 0.00 0.26 0.00 76 1014.5
20190121120608 -2 261 0.0 0.0 0.00 0.26 0.00 76 1014.5
20190121120115 -2 323 0.0 0.0 0.00 0.27 0.00 74 1014.5
20190121115608 -2 321 0.0 0.0 0.00 0.28 0.00 74 1014.1
20190121115108 -2 265 0.0 0.0 0.00 0.29 0.00 74 1014.1
20190121114603 -2 296 0.0 0.0 0.00 0.31 0.00 74 1014.1
20190121114059 -2 157 0.0 0.0 0.00 0.33 0.00 75 1014.1
20190121113546 -2 284 0.0 0.0 0.00 0.35 0.00 73 1014.1
20190121113040 -2 252 0.0 0.0 0.00 0.36 0.00 74 1014.1
20190121112530 -2 276 0.0 0.0 0.00 0.38 0.00 72 1013.4
20190121112028 -2 321 0.0 0.0 0.00 0.39 0.00 73 1013.4
20190121111524 -2 230 0.0 0.0 0.00 0.41 0.00 73 1013.4
20190121110950 -2 26 0.0 0.0 0.00 0.41 0.00 73 1013.4
20190121110448 -2 198 0.0 0.0 0.00 0.43 0.00 73 1013.4
20190121105950 -2 275 0.0 0.0 0.00 0.44 0.00 72 1013.0
20190121105450 -2 280 0.0 0.0 0.00 0.46 0.00 73 1013.0
20190121104955 -2 342 0.0 0.0 0.00 0.47 0.00 73 1013.0
20190121104443 -2 277 0.0 0.0 0.00 0.48 0.00 73 1012.9
20190121103946 -2 246 0.0 0.0 0.00 0.50 0.00 74 1012.9
20190121103441 -2 269 0.0 0.0 0.00 0.52 0.00 75 1012.9
20190121102939 -2 244 0.0 0.0 0.00 0.54 0.00 74 1012.8
20190121102436 -1 223 0.0 0.0 0.00 0.56 0.00 74 1012.8
20190121101939 -1 250 0.0 0.0 0.00 0.57 0.00 74 1012.8
20190121101428 -1 277 0.0 0.0 0.00 0.58 0.00 74 1012.5
20190121100925 -1 250 0.0 0.0 0.00 0.60 0.00 74 1012.5
20190121100425 -1 244 0.0 0.0 0.00 0.61 0.00 74 1012.5
20190121095925 -1 267 0.0 0.0 0.00 0.62 0.00 73 1012.3
20190121095421 -1 246 0.0 0.0 0.00 0.63 0.00 74 1012.3
20190121094914 -1 173 0.0 0.0 0.00 0.64 0.00 75 1012.3
20190121094413 -1 282 0.0 0.0 0.00 0.65 0.00 73 1012.0
20190121093907 -1 289 0.0 0.0 0.00 0.66 0.00 74 1012.0
20190121093410 -1 35 0.0 0.0 0.00 0.68 0.00 74 1012.0
20190121092903 -1 313 0.0 0.0 0.00 0.69 0.00 74 1011.8
20190121092351 0 230 0.0 0.0 0.00 0.70 0.00 74 1011.8
20190121091841 0 269 0.0 0.0 0.00 0.71 0.00 74 1011.8
20190121091340 0 201 0.0 0.0 0.00 0.72 0.00 73 1011.5
20190121090841 0 320 0.0 0.0 0.00 0.73 0.00 73 1011.5
20190121090331 0 327 0.0 0.0 0.00 0.74 0.00 73 1011.5
20190121085826 0 304 0.0 0.0 0.00 0.75 0.00 73 1011.4
20190121085310 0 275 0.0 0.0 0.00 0.76 0.00 74 1011.4
20190121084813 0 235 0.0 0.0 0.00 0.77 0.00 74 1011.4
20190121084312 1 266 0.0 0.0 0.00 0.78 0.00 74 1011.3
20190121083820 1 254 0.0 0.0 0.00 0.79 0.00 74 1011.3
20190121083308 1 140 0.0 0.0 0.00 0.80 0.00 74 1011.3
20190121082738 1 273 0.0 0.0 0.00 0.81 0.00 74 1011.4
20190121082232 1 230 0.0 0.0 0.00 0.82 0.00 75 1011.4
20190121081730 1 325 0.0 0.0 0.00 0.83 0.00 75 1011.4
20190121081228 1 239 0.0 0.0 0.00 0.84 0.00 74 1011.4
20190121080730 1 336 0.0 0.0 0.00 0.85 0.00 74 1011.4
20190121080227 2 290 0.0 0.0 0.00 0.86 0.00 75 1011.4
20190121075727 2 348 0.0 0.0 0.00 0.87 0.00 75 1011.3
20190121075225 2 269 0.0 0.0 0.00 0.88 0.00 76 1011.3
20190121074722 2 273 0.0 0.0 0.00 0.89 0.00 75 1011.3
20190121074224 2 284 0.0 0.0 0.00 0.91 0.00 75 1011.3
20190121073708 2 302 0.0 0.0 0.00 0.92 0.00 74 1011.3
20190121073208 2 297 0.0 0.0 0.00 0.93 0.00 74 1011.3
20190121072701 2 290 0.0 0.0 0.00 0.95 0.00 76 1011.0
20190121072203 3 244 0.0 0.0 0.00 0.96 0.00 76 1011.0
20190121071649 3 244 0.0 0.0 0.00 0.97 0.00 76 1011.0
20190121071155 3 5 0.0 0.0 0.00 0.98 0.00 76 1010.6
20190121070639 3 302 0.0 0.0 0.00 0.99 0.00 76 1010.6
20190121070136 3 324 0.0 0.0 0.00 1.00 0.00 76 1010.6
20190121065636 3 301 0.0 0.0 0.00 1.01 0.00 76 1010.3
20190121065130 3 28 0.0 0.0 0.00 1.02 0.00 76 1010.3
20190121064624 4 300 0.0 0.0 0.00 1.03 0.00 76 1010.3
20190121064106 4 252 0.0 0.0 0.00 1.04 0.00 78 1009.8
20190121063600 4 349 0.0 0.0 0.00 1.05 0.00 78 1009.8
20190121063043 4 252 0.0 0.0 0.00 1.07 0.00 77 1009.8
20190121062552 4 280 0.0 0.0 0.00 1.08 0.00 78 1009.6
20190121062038 4 336 0.0 0.0 0.00 1.10 0.00 77 1009.6
20190121061530 4 259 0.0 0.0 0.00 1.11 0.00 78 1009.2
20190121061030 4 247 0.0 0.0 0.00 1.12 0.00 78 1009.2
20190121060532 4 293 0.0 0.0 0.00 1.13 0.00 78 1009.2
20190121060006 4 239 0.0 0.0 0.00 1.14 0.00 78 1009.0
20190121055458 4 207 0.0 0.0 0.00 1.15 0.00 78 1009.0
20190121055009 5 278 0.0 0.0 0.00 1.16 0.00 78 1009.0
20190121054450 5 238 0.0 0.0 0.00 1.17 0.00 78 1008.7
20190121053946 5 294 0.0 0.0 0.00 1.18 0.00 78 1008.7
20190121053447 5 294 0.0 0.0 0.00 1.20 0.00 78 1008.7
20190121052941 5 343 0.0 0.0 0.00 1.20 0.00 79 1008.7
20190121052440 5 317 0.0 0.0 0.00 1.22 0.00 78 1008.7
20190121051939 5 351 0.0 0.0 0.00 1.23 0.00 78 1008.7
20190121051432 5 208 0.0 0.0 0.00 1.24 0.00 78 1008.6
20190121050927 5 81 0.0 0.0 0.00 1.26 0.00 78 1008.6
20190121050413 5 305 0.0 0.0 0.00 1.27 0.00 78 1008.6
20190121045912 6 337 0.0 0.0 0.00 1.29 1.28 78 1008.2
20190121045425 6 306 0.0 0.0 0.00 1.30 1.28 79 1008.2
20190121044913 6 229 0.0 0.0 0.00 1.32 1.28 79 1008.2
20190121044406 6 252 0.0 0.0 0.00 1.32 1.28 79 1008.2
20190121043907 6 279 0.0 0.0 0.00 1.33 1.28 79 1008.2
20190121043358 6 200 0.0 0.0 0.00 1.34 1.28 79 1008.2
20190121042858 6 217 0.0 0.0 0.00 1.34 1.28 79 1007.8
20190121042354 6 177 0.0 0.0 0.00 1.35 1.28 79 1007.8
20190121041846 6 248 0.0 0.0 0.00 1.35 1.28 80 1007.8
20190121041336 6 125 0.0 0.0 0.00 1.36 1.28 80 1007.6
20190121040835 7 269 0.0 0.0 0.00 1.36 1.28 81 1007.6
20190121040331 7 261 0.0 0.0 0.00 1.37 1.28 81 1007.6
20190121035831 7 35 0.0 0.0 0.00 1.37 1.28 81 1007.4
20190121035326 7 45 0.0 0.0 0.00 1.37 1.28 80 1007.4
20190121034822 7 329 0.0 0.0 0.00 1.38 1.28 80 1007.4
20190121034324 7 296 0.0 0.0 0.00 1.38 1.28 80 1007.3
20190121033816 7 180 0.0 0.0 0.00 1.38 1.28 80 1007.3
20190121033318 7 65 0.0 0.0 0.00 1.39 1.28 81 1007.3
20190121032810 7 298 0.0 0.0 0.00 1.39 1.28 80 1007.1
20190121032306 8 277 0.0 0.0 0.00 1.40 1.28 80 1007.1
20190121031807 8 267 0.0 0.0 0.00 1.40 1.28 80 1007.1
20190121031308 8 323 0.0 0.0 0.00 1.41 1.28 80 1006.9
20190121030803 8 348 0.0 0.0 0.00 1.41 1.28 79 1006.9
20190121030301 8 240 0.0 0.0 0.00 1.42 1.28 79 1006.9
20190121025804 8 219 0.0 0.0 0.00 1.42 1.28 79 1006.1
20190121025257 8 180 0.0 0.0 0.00 1.43 1.28 80 1006.1
20190121024749 8 300 0.0 0.0 0.00 1.43 1.28 80 1006.1
20190121024247 8 69 0.0 0.0 0.00 1.44 1.28 79 1006.1
20190121023739 8 5 0.0 0.0 0.00 1.44 1.28 81 1006.1
20190121023231 8 355 0.0 0.0 0.00 1.45 1.28 80 1006.1
20190121022706 8 243 0.0 0.0 0.00 1.45 1.28 80 1006.0
20190121022206 9 336 0.0 0.0 0.00 1.46 1.28 81 1006.0
20190121021702 9 120 0.0 0.0 0.00 1.46 1.28 80 1006.0
20190121021155 9 286 0.0 0.0 0.00 1.46 1.28 80 1006.2
20190121020648 9 341 0.0 0.0 0.00 1.47 1.28 80 1006.2
20190121020142 10 284 0.0 0.0 0.00 1.47 1.28 80 1006.2
20190121015637 10 286 0.0 0.0 0.00 1.48 1.28 81 1006.1
20190121015140 10 355 0.0 0.0 0.00 1.48 1.28 82 1006.1
20190121014623 10 315 0.0 0.0 0.00 1.49 1.28 82 1006.1
20190121014119 10 29 0.0 0.0 0.00 1.49 1.28 81 1006.2
20190121013615 10 273 0.0 0.0 0.00 1.50 1.28 81 1006.2
20190121013116 10 339 0.0 0.0 0.00 1.50 1.28 82 1006.2
20190121012605 10 305 0.0 0.0 0.00 1.51 1.28 81 1006.4
20190121012106 10 329 0.0 0.0 0.00 1.51 1.28 81 1006.4
20190121011557 10 275 0.0 0.0 0.00 1.52 1.28 81 1006.4
20190121011044 10 279 0.0 0.0 0.00 1.52 1.28 81 1006.1
20190121010542 10 328 0.0 0.0 0.00 1.52 1.28 82 1006.1
20190121010030 11 318 0.0 0.0 0.00 1.53 1.28 81 1006.1
20190121005518 11 343 0.0 0.0 0.00 1.53 1.28 82 1005.8
20190121005024 11 347 0.0 0.0 0.00 1.54 1.28 83 1005.8
20190121004511 11 315 0.0 0.0 0.00 1.54 1.28 83 1005.5
20190121004006 11 326 0.0 0.0 0.00 1.54 1.28 83 1005.5
20190121003505 11 248 0.0 0.0 0.00 1.54 1.28 83 1005.5
20190121002947 11 329 0.0 0.0 0.00 1.54 1.28 83 1005.4
20190121002454 11 313 0.0 0.0 0.00 1.55 1.28 82 1005.4
20190121001946 11 309 0.0 0.0 0.00 1.55 1.28 82 1005.4
20190121001446 11 355 0.0 0.0 0.00 1.55 1.28 82 1005.1
20190121000940 11 298 0.0 0.0 0.00 1.56 1.28 82 1005.1
20190121000439 11 289 0.0 0.0 0.00 1.56 1.28 82 1005.1
20190120235930 11 289 0.0 0.0 0.00 1.56 1.28 81 1005.1
20190120235430 11 235 0.0 0.0 0.00 1.56 1.28 82 1005.1
20190120234928 11 257 0.0 0.0 0.00 1.56 1.28 81 1005.1
20190120234436 11 308 0.0 0.0 0.00 1.56 1.28 82 1004.9
20190120233904 11 311 0.0 0.0 0.00 1.57 1.28 82 1004.9
20190120233354 11 276 0.0 0.0 0.00 1.57 1.28 84 1004.9
20190120232907 11 292 0.0 0.0 0.00 1.57 1.28 84 1004.5
20190120232354 11 324 0.0 0.0 0.00 1.57 1.28 84 1004.5
20190120231907 11 325 0.0 0.0 0.00 1.57 1.28 83 1004.5
20190120231345 11 303 0.0 0.0 0.00 1.57 1.28 84 1004.4
20190120230848 11 334 0.0 0.0 0.00 1.57 1.28 84 1004.4
20190120230340 11 331 0.0 0.0 0.00 1.57 1.28 84 1004.4
20190120225845 11 47 0.0 0.0 0.00 1.58 1.28 84 1003.9
20190120225339 11 323 0.0 0.0 0.00 1.58 1.28 84 1003.9
20190120224838 11 278 0.0 0.0 0.00 1.58 1.28 84 1003.9
20190120224336 12 355 0.0 0.0 0.00 1.58 1.28 85 1003.5
20190120223835 12 331 0.0 0.0 0.00 1.58 1.28 85 1003.5
20190120223336 12 300 0.0 0.0 0.00 1.58 1.28 85 1003.5
20190120222834 12 325 0.0 0.0 0.00 1.58 1.28 85 1003.7
20190120222336 12 296 0.0 0.0 0.00 1.58 1.28 85 1003.7
20190120221831 12 242 0.0 0.0 0.00 1.59 1.28 85 1003.7
20190120221322 12 306 0.0 0.0 0.00 1.59 1.28 85 1002.9
20190120220823 12 328 0.0 0.0 0.00 1.59 1.28 85 1002.9
20190120220308 12 274 0.0 0.0 0.00 1.59 1.28 85 1002.9
20190120215804 12 315 0.0 0.0 0.00 1.59 1.28 85 1002.8
20190120215302 12 311 0.0 0.0 0.00 1.59 1.28 85 1002.8
20190120214759 12 0 0.0 0.0 0.00 1.59 1.28 85 1002.8
20190120214255 13 20 0.0 0.0 0.00 1.59 1.28 84 1002.5
20190120213749 13 350 0.0 0.0 0.00 1.59 1.28 85 1002.5
20190120213253 13 71 0.0 0.0 0.00 1.59 1.28 85 1002.5
20190120212751 13 164 0.0 0.0 0.00 1.59 1.28 85 1002.3
20190120212242 13 336 0.0 0.0 0.00 1.59 1.28 84 1002.3
20190120211741 13 292 0.0 0.0 0.00 1.59 1.28 83 1002.3
20190120211238 14 339 0.0 0.0 0.00 1.59 1.28 83 1001.4
20190120210739 14 12 0.0 0.0 0.00 1.59 1.28 83 1001.4
20190120210236 15 342 0.0 0.0 0.00 1.59 1.28 84 1001.4
20190120205738 15 78 0.0 0.0 0.00 1.59 1.28 85 1001.0
20190120205236 15 338 0.0 0.0 0.00 1.59 1.28 86 1001.0
20190120204726 15 297 0.0 0.0 0.00 1.59 1.28 84 1001.0
20190120204219 15 340 0.0 0.0 0.00 1.59 1.28 83 1000.8
20190120203718 16 274 0.0 0.0 0.00 1.59 1.28 83 1000.8
20190120203216 17 226 0.0 0.0 0.00 1.59 1.28 85 1000.8
20190120202716 17 299 0.0 0.0 0.00 1.59 1.28 87 1000.4
20190120202212 16 49 0.0 0.0 0.00 1.59 1.28 89 1000.4
20190120201709 16 355 0.0 0.0 0.00 1.59 1.28 89 1000.4
20190120201206 15 315 0.0 0.0 0.00 1.59 1.28 86 1000.1
20190120200658 15 319 0.0 0.0 0.00 1.59 1.28 86 1000.1
20190120200155 15 331 0.0 0.0 0.00 1.59 1.28 85 1000.1
20190120195658 15 308 0.0 0.0 0.00 1.59 1.28 84 1000.1
20190120195153 16 326 0.0 0.0 0.00 1.59 1.28 85 1000.1
20190120194643 16 338 0.0 0.0 0.00 1.59 1.28 85 1000.1
20190120194146 16 311 0.0 0.0 0.00 1.59 1.28 84 999.2
20190120193632 17 215 0.0 0.0 0.00 1.59 1.28 86 999.2
20190120193124 17 269 0.0 0.0 0.00 1.59 1.28 87 999.2
20190120192622 16 119 0.0 0.0 0.00 1.59 1.28 86 999.6
20190120192125 16 349 0.0 0.0 0.00 1.59 1.28 85 999.6
20190120191618 17 252 0.0 0.0 0.00 1.59 1.28 84 999.6
20190120191120 17 273 0.0 0.0 0.00 1.59 1.28 87 998.6
20190120190614 17 134 0.0 0.0 0.00 1.59 1.28 86 998.6
20190120190102 17 21 0.0 0.0 0.00 1.59 1.28 85 998.6
20190120185605 17 315 0.0 0.0 0.00 1.59 1.28 87 998.4
20190120185101 17 280 0.0 0.0 0.00 1.59 1.28 86 998.4
20190120184601 17 302 0.0 0.0 0.00 1.59 1.28 88 998.4
20190120184057 17 289 0.0 0.0 0.00 1.59 1.28 87 998.1